VTI416 VABB-VERP

Flight info

Callsign VTI416
Flight time 1h 23m
Altitude 39000
Route ANOLI2A AAU G450 NNP N895 SADEV W136 RRP DCT
Aircraft B789/H-SDE1E2E3FGHIJ2J3J4J5M1RWXY/LB1D1

Departure

Time 2026-04-15 13:40
Airport Chhatrapati Shivaji Maharaj International Airport (VABB)

Arrival

Time 2026-04-15 15:04
Airport Swami Vivekananda Airport (VERP)
Time Latitude Longitude Altitude Speed Heading
2026-04-15 12:52 19.09501 72.87525 47 ft 0 kts 39°
2026-04-15 13:01 19.09985 72.87937 110 ft 57 kts 139°
2026-04-15 13:01 19.09501 72.87525 47 ft 0 kts 39°
2026-04-15 13:21 19.09497 72.87521 54 ft 3 kts 39°
2026-04-15 13:21 19.09481 72.87508 47 ft 3 kts 38°
2026-04-15 13:22 19.09465 72.87495 47 ft 3 kts 35°
2026-04-15 13:22 19.09451 72.87486 47 ft 3 kts 29°
2026-04-15 13:22 19.09437 72.87480 54 ft 1 kts 11°
2026-04-15 13:22 19.09427 72.87479 47 ft 2 kts 344°
2026-04-15 13:23 19.09417 72.87485 47 ft 2 kts 320°
2026-04-15 13:23 19.09410 72.87492 50 ft 1 kts 311°
2026-04-15 13:23 19.09405 72.87498 48 ft 1 kts 308°
2026-04-15 13:23 19.09401 72.87504 47 ft 0 kts 307°
2026-04-15 13:29 19.09407 72.87496 49 ft 4 kts 306°
2026-04-15 13:29 19.09419 72.87471 47 ft 1 kts 292°
2026-04-15 13:29 19.09422 72.87457 47 ft 3 kts 277°
2026-04-15 13:30 19.09417 72.87433 47 ft 4 kts 246°
2026-04-15 13:30 19.09395 72.87404 51 ft 7 kts 228°
2026-04-15 13:30 19.09354 72.87370 48 ft 8 kts 198°
2026-04-15 13:30 19.09292 72.87363 48 ft 9 kts 179°
2026-04-15 13:31 19.09252 72.87350 50 ft 5 kts 222°
2026-04-15 13:31 19.09241 72.87314 48 ft 6 kts 257°
2026-04-15 13:31 19.09215 72.87270 52 ft 8 kts 213°
2026-04-15 13:31 19.09159 72.87263 49 ft 10 kts 180°
2026-04-15 13:32 19.09082 72.87262 48 ft 11 kts 178°
2026-04-15 13:32 19.09072 72.87266 51 ft 2 kts 160°
2026-04-15 13:32 19.09058 72.87278 49 ft 3 kts 125°
2026-04-15 13:32 19.09051 72.87317 50 ft 8 kts 96°
2026-04-15 13:33 19.09051 72.87400 50 ft 13 kts 89°
2026-04-15 13:33 19.09052 72.87507 49 ft 16 kts 89°
2026-04-15 13:33 19.09054 72.87631 49 ft 18 kts 89°
2026-04-15 13:33 19.09056 72.87769 48 ft 20 kts 89°
2026-04-15 13:34 19.09058 72.87892 49 ft 11 kts 89°
2026-04-15 13:34 19.09059 72.87985 54 ft 14 kts 89°
2026-04-15 13:34 19.09054 72.88026 47 ft 4 kts 110°
2026-04-15 13:34 19.09035 72.88047 51 ft 4 kts 154°
2026-04-15 13:35 19.09013 72.88051 49 ft 0 kts 179°
2026-04-15 13:38 19.09010 72.88051 53 ft 3 kts 179°
2026-04-15 13:38 19.08966 72.88051 50 ft 10 kts 181°
2026-04-15 13:38 19.08897 72.88017 45 ft 12 kts 234°
2026-04-15 13:38 19.08887 72.87958 49 ft 0 kts 270°
2026-04-15 13:39 19.08888 72.87933 53 ft 17 kts 270°
2026-04-15 13:39 19.08887 72.87516 54 ft 97 kts 269°
2026-04-15 13:39 19.08876 72.86530 50 ft 169 kts 269°
2026-04-15 13:40 19.08865 72.85100 361 ft 204 kts 271°
2026-04-15 13:40 19.08908 72.83572 1222 ft 215 kts 274°
2026-04-15 13:40 19.08966 72.81922 1892 ft 239 kts 269°
2026-04-15 13:40 19.08816 72.80116 2397 ft 251 kts 267°
2026-04-15 13:41 19.08819 72.78247 2887 ft 260 kts 284°
2026-04-15 13:41 19.09282 72.77047 3253 ft 275 kts 300°
2026-04-15 13:41 19.11261 72.75196 3992 ft 309 kts 336°
2026-04-15 13:41 19.13415 72.74751 4572 ft 324 kts 353°
2026-04-15 13:42 19.15699 72.74665 5082 ft 331 kts 357°
2026-04-15 13:42 19.18018 72.74638 5605 ft 335 kts 356°
2026-04-15 13:42 19.19577 72.74559 5951 ft 343 kts 354°
2026-04-15 13:42 19.22024 72.74380 6462 ft 361 kts 354°
2026-04-15 13:43 19.24590 72.74216 6973 ft 377 kts 355°
2026-04-15 13:43 19.27244 72.74106 7482 ft 385 kts 358°
2026-04-15 13:43 19.29918 72.74553 7800 ft 399 kts 16°
2026-04-15 13:43 19.32400 72.75852 7922 ft 394 kts 36°
2026-04-15 13:44 19.34432 72.77745 8677 ft 390 kts 42°
2026-04-15 13:44 19.36386 72.79774 9438 ft 396 kts 43°
2026-04-15 13:44 19.38418 72.81776 10160 ft 401 kts 39°
2026-04-15 13:44 19.40561 72.83687 10871 ft 405 kts 38°
2026-04-15 13:45 19.42717 72.85628 11592 ft 409 kts 39°
2026-04-15 13:45 19.44775 72.87726 12322 ft 414 kts 49°
2026-04-15 13:45 19.46296 72.90335 13058 ft 421 kts 64°
2026-04-15 13:47 19.50984 73.11963 18122 ft 434 kts 76°
2026-04-15 13:47 19.51657 73.15078 18786 ft 434 kts 76°
2026-04-15 13:47 19.52319 73.18200 19454 ft 434 kts 76°
2026-04-15 13:48 19.52974 73.21334 20136 ft 434 kts 76°
2026-04-15 13:48 19.53631 73.24459 20845 ft 435 kts 76°
2026-04-15 13:48 19.54294 73.27585 21559 ft 434 kts 77°
2026-04-15 13:48 19.54953 73.30706 22295 ft 434 kts 77°
2026-04-15 13:49 19.55599 73.33785 23039 ft 433 kts 77°
2026-04-15 13:49 19.56186 73.36905 23734 ft 430 kts 84°
2026-04-15 13:49 19.56482 73.40047 24397 ft 427 kts 84°
2026-04-15 13:49 19.56790 73.43174 25038 ft 425 kts 84°
2026-04-15 13:50 19.57106 73.46279 25699 ft 423 kts 84°
2026-04-15 13:50 19.57413 73.49367 26375 ft 419 kts 84°
2026-04-15 13:50 19.57711 73.52430 27072 ft 416 kts 84°
2026-04-15 13:50 19.58007 73.55463 27778 ft 411 kts 84°
2026-04-15 13:51 19.58304 73.58465 28495 ft 407 kts 84°
2026-04-15 13:51 19.58596 73.61426 29237 ft 401 kts 84°
2026-04-15 13:51 19.58881 73.64346 29963 ft 395 kts 84°
2026-04-15 13:51 19.59180 73.67215 30603 ft 388 kts 79°
2026-04-15 13:52 19.60021 73.69859 31303 ft 372 kts 60°
2026-04-15 13:52 19.61179 73.72271 31927 ft 361 kts 59°
2026-04-15 13:52 19.62367 73.74566 32560 ft 349 kts 58°
2026-04-15 13:52 19.63523 73.76794 33019 ft 345 kts 58°
2026-04-15 13:53 19.64674 73.79072 32978 ft 356 kts 59°
2026-04-15 13:53 19.65845 73.81420 33016 ft 365 kts 59°
2026-04-15 13:53 19.68306 73.86290 33044 ft 385 kts 59°
2026-04-15 13:54 19.69587 73.88828 33051 ft 396 kts 59°
2026-04-15 13:54 19.70899 73.91439 33056 ft 406 kts 59°
2026-04-15 13:54 19.72248 73.94121 33055 ft 417 kts 59°
2026-04-15 13:54 19.73615 73.96835 33057 ft 428 kts 59°
2026-04-15 13:55 19.75055 73.99696 33058 ft 439 kts 59°
2026-04-15 13:55 19.76388 74.02603 33062 ft 450 kts 69°
2026-04-15 13:55 19.78646 74.08962 33043 ft 470 kts 67°
2026-04-15 13:56 19.81037 74.15566 33038 ft 489 kts 68°
2026-04-15 13:56 19.82244 74.18961 33246 ft 492 kts 68°
2026-04-15 13:56 19.83456 74.22351 33663 ft 490 kts 67°
2026-04-15 13:57 19.84671 74.25724 34043 ft 488 kts 67°
2026-04-15 13:57 19.85880 74.29091 34397 ft 487 kts 67°
2026-04-15 13:57 19.87080 74.32454 34739 ft 486 kts 68°
2026-04-15 13:57 19.88275 74.35800 35077 ft 484 kts 68°
2026-04-15 13:58 19.89470 74.39140 35417 ft 482 kts 68°
2026-04-15 13:58 19.90658 74.42463 35759 ft 480 kts 68°
2026-04-15 13:58 19.91841 74.45776 36110 ft 478 kts 68°
2026-04-15 13:58 19.93017 74.49078 36454 ft 476 kts 68°
2026-04-15 13:59 19.94185 74.52355 36812 ft 474 kts 68°
2026-04-15 13:59 19.95350 74.55623 37160 ft 471 kts 68°
2026-04-15 13:59 19.96506 74.58870 37521 ft 468 kts 68°
2026-04-15 13:59 19.97653 74.62095 37884 ft 465 kts 68°
2026-04-15 14:00 19.98792 74.65299 38253 ft 461 kts 69°
2026-04-15 14:00 19.99632 74.68564 38636 ft 455 kts 83°
2026-04-15 14:00 19.99817 74.71889 38888 ft 451 kts 97°
2026-04-15 14:00 19.99353 74.75182 38895 ft 451 kts 104°
2026-04-15 14:01 19.97345 74.85139 38877 ft 466 kts 104°
2026-04-15 14:02 19.95988 74.91898 38878 ft 476 kts 104°
2026-04-15 14:02 19.94582 74.98845 38875 ft 486 kts 104°
2026-04-15 14:03 19.93149 75.05933 38871 ft 495 kts 104°
2026-04-15 14:03 19.91686 75.13147 38876 ft 504 kts 104°
2026-04-15 14:04 19.90195 75.20486 38873 ft 512 kts 104°
2026-04-15 14:04 19.88677 75.27938 38868 ft 520 kts 104°
2026-04-15 14:05 19.87154 75.35507 38869 ft 528 kts 99°
2026-04-15 14:05 19.86896 75.39404 38887 ft 532 kts 87°
2026-04-15 14:05 19.87333 75.43312 38887 ft 535 kts 76°
2026-04-15 14:06 19.89775 75.50802 38872 ft 540 kts 68°
2026-04-15 14:06 19.92498 75.58289 38870 ft 546 kts 68°
2026-04-15 14:07 19.95224 75.65862 38869 ft 551 kts 68°
2026-04-15 14:07 19.97984 75.73498 38869 ft 556 kts 68°
2026-04-15 14:08 20.00747 75.81183 38862 ft 556 kts 68°
2026-04-15 14:08 20.03492 75.88810 38865 ft 556 kts 68°
2026-04-15 14:09 20.06251 75.96501 38862 ft 555 kts 68°
2026-04-15 14:09 20.09002 76.04175 38861 ft 555 kts 68°
2026-04-15 14:10 20.11748 76.11847 38854 ft 555 kts 68°
2026-04-15 14:10 20.14490 76.19524 38857 ft 555 kts 68°
2026-04-15 14:11 20.17233 76.27210 38853 ft 555 kts 68°
2026-04-15 14:11 20.19967 76.34889 38853 ft 555 kts 68°
2026-04-15 14:12 20.22697 76.42564 38836 ft 555 kts 68°
2026-04-15 14:12 20.25426 76.50250 38825 ft 555 kts 68°
2026-04-15 14:13 20.28149 76.57931 38816 ft 554 kts 68°
2026-04-15 14:13 20.30866 76.65607 38822 ft 553 kts 68°
2026-04-15 14:14 20.33577 76.73279 38820 ft 553 kts 68°
2026-04-15 14:14 20.36281 76.80944 38812 ft 552 kts 68°
2026-04-15 14:15 20.38713 76.88715 38813 ft 554 kts 71°
2026-04-15 14:15 20.41141 76.96527 38814 ft 556 kts 71°
2026-04-15 14:16 20.43476 77.04392 38814 ft 556 kts 71°
2026-04-15 14:16 20.45867 77.12230 38812 ft 555 kts 71°
2026-04-15 14:17 20.48198 77.20020 38811 ft 554 kts 71°
2026-04-15 14:17 20.50557 77.27838 38805 ft 554 kts 71°
2026-04-15 14:18 20.52900 77.35660 38805 ft 553 kts 71°
2026-04-15 14:18 20.55308 77.43452 38812 ft 553 kts 69°
2026-04-15 14:19 20.57837 77.51232 38803 ft 556 kts 70°
2026-04-15 14:19 20.60396 77.59032 38804 ft 557 kts 69°
2026-04-15 14:20 20.62951 77.66831 38795 ft 556 kts 70°
2026-04-15 14:20 20.65486 77.74624 38794 ft 555 kts 69°
2026-04-15 14:21 20.68026 77.82392 38793 ft 554 kts 70°
2026-04-15 14:21 20.70564 77.90171 38789 ft 554 kts 69°
2026-04-15 14:22 20.73146 77.97923 38800 ft 555 kts 69°
2026-04-15 14:22 20.75691 78.05712 38798 ft 555 kts 69°
2026-04-15 14:23 20.78260 78.13488 38792 ft 555 kts 69°
2026-04-15 14:23 20.80792 78.21233 38793 ft 556 kts 69°
2026-04-15 14:24 20.83349 78.29021 38788 ft 556 kts 69°
2026-04-15 14:24 20.85894 78.36823 38789 ft 556 kts 69°
2026-04-15 14:24 20.87170 78.40723 38623 ft 556 kts 69°
2026-04-15 14:25 20.88444 78.44620 38101 ft 552 kts 69°
2026-04-15 14:25 20.89699 78.48477 37557 ft 547 kts 69°
2026-04-15 14:25 20.90941 78.52297 37027 ft 541 kts 69°
2026-04-15 14:25 20.92177 78.56091 36520 ft 536 kts 69°
2026-04-15 14:26 20.93397 78.59838 36022 ft 531 kts 69°
2026-04-15 14:26 20.94605 78.63557 35534 ft 527 kts 69°
2026-04-15 14:26 20.95799 78.67242 35052 ft 523 kts 69°
2026-04-15 14:26 20.96990 78.70912 34601 ft 521 kts 69°
2026-04-15 14:27 20.98183 78.74588 34152 ft 526 kts 69°
2026-04-15 14:27 20.99385 78.78298 33711 ft 530 kts 69°
2026-04-15 14:27 21.00594 78.82038 33211 ft 531 kts 69°
2026-04-15 14:27 21.01801 78.85775 32717 ft 531 kts 69°
2026-04-15 14:28 21.03006 78.89505 32134 ft 532 kts 70°
2026-04-15 14:28 21.04217 78.93253 31433 ft 533 kts 70°
2026-04-15 14:28 21.05409 78.96951 30744 ft 531 kts 70°
2026-04-15 14:28 21.06606 79.00670 30059 ft 527 kts 70°
2026-04-15 14:29 21.07528 79.04468 29342 ft 530 kts 81°
2026-04-15 14:29 21.07771 79.08427 28633 ft 536 kts 92°
2026-04-15 14:29 21.07406 79.12383 27900 ft 534 kts 97°
2026-04-15 14:29 21.06944 79.16324 27171 ft 531 kts 97°
2026-04-15 14:30 21.06627 79.18967 26688 ft 528 kts 97°
2026-04-15 14:30 21.06161 79.22855 25978 ft 523 kts 97°
2026-04-15 14:30 21.05556 79.27983 25079 ft 529 kts 97°
2026-04-15 14:30 21.05090 79.31917 24420 ft 535 kts 97°
2026-04-15 14:31 21.04777 79.34535 23987 ft 534 kts 97°
2026-04-15 14:31 21.04307 79.38465 23346 ft 531 kts 97°
2026-04-15 14:31 21.03841 79.42370 22597 ft 526 kts 97°
2026-04-15 14:31 21.03379 79.46229 21838 ft 519 kts 97°
2026-04-15 14:32 21.02923 79.50031 21084 ft 512 kts 97°
2026-04-15 14:32 21.02471 79.53787 20384 ft 505 kts 97°
2026-04-15 14:32 21.02025 79.57485 19688 ft 498 kts 97°
2026-04-15 14:32 21.01585 79.61133 19004 ft 491 kts 97°
2026-04-15 14:33 21.01150 79.64731 18336 ft 485 kts 97°
2026-04-15 14:33 21.00717 79.68300 17607 ft 479 kts 97°
2026-04-15 14:33 21.00291 79.71806 16856 ft 473 kts 96°
2026-04-15 14:33 20.99869 79.75278 16122 ft 468 kts 96°
2026-04-15 14:34 20.99453 79.78708 15411 ft 462 kts 96°
2026-04-15 14:34 20.99039 79.82089 14842 ft 455 kts 96°
2026-04-15 14:34 20.98637 79.85396 14761 ft 444 kts 96°
2026-04-15 14:34 20.98231 79.88713 14776 ft 455 kts 96°
2026-04-15 14:35 20.97816 79.92076 14773 ft 458 kts 96°
2026-04-15 14:35 20.97403 79.95441 14775 ft 465 kts 96°
2026-04-15 14:35 20.96984 79.98880 14775 ft 466 kts 96°
2026-04-15 14:35 20.96559 80.02319 14772 ft 466 kts 96°
2026-04-15 14:36 20.96133 80.05756 14778 ft 466 kts 96°
2026-04-15 14:36 20.95708 80.09199 14777 ft 466 kts 96°
2026-04-15 14:36 20.95284 80.12633 14778 ft 466 kts 96°
2026-04-15 14:36 20.94857 80.16071 14778 ft 466 kts 96°
2026-04-15 14:37 20.94430 80.19508 14778 ft 466 kts 96°
2026-04-15 14:37 20.94002 80.22946 14780 ft 467 kts 96°
2026-04-15 14:37 20.93573 80.26390 14778 ft 467 kts 96°
2026-04-15 14:37 20.93144 80.29826 14780 ft 467 kts 96°
2026-04-15 14:38 20.92713 80.33272 14784 ft 467 kts 96°
2026-04-15 14:38 20.92281 80.36718 14784 ft 467 kts 96°
2026-04-15 14:38 20.91850 80.40162 14785 ft 467 kts 96°
2026-04-15 14:38 20.91417 80.43603 14782 ft 467 kts 96°
2026-04-15 14:39 20.90983 80.47051 14786 ft 467 kts 96°
2026-04-15 14:39 20.90550 80.50489 14784 ft 468 kts 96°
2026-04-15 14:39 20.90116 80.53920 14777 ft 461 kts 96°
2026-04-15 14:39 20.89688 80.57297 14762 ft 455 kts 96°
2026-04-15 14:40 20.89266 80.60643 14763 ft 454 kts 96°
2026-04-15 14:40 20.88841 80.63990 14765 ft 454 kts 96°
2026-04-15 14:40 20.88415 80.67333 14761 ft 454 kts 96°
2026-04-15 14:40 20.87990 80.70674 14774 ft 452 kts 96°
2026-04-15 14:41 20.87569 80.73998 14702 ft 452 kts 96°
2026-04-15 14:41 20.87143 80.77330 14013 ft 449 kts 96°
2026-04-15 14:41 20.86724 80.80604 13333 ft 440 kts 96°
2026-04-15 14:41 20.86315 80.83817 12591 ft 432 kts 96°
2026-04-15 14:42 20.85912 80.86979 11883 ft 425 kts 96°
2026-04-15 14:42 20.85513 80.90081 11177 ft 418 kts 96°
2026-04-15 14:42 20.85121 80.93135 10488 ft 411 kts 97°
2026-04-15 14:42 20.84733 80.96144 9815 ft 405 kts 97°
2026-04-15 14:43 20.84356 80.99065 9104 ft 399 kts 97°
2026-04-15 14:43 20.83980 81.01981 8392 ft 393 kts 97°
2026-04-15 14:43 20.83609 81.04856 7703 ft 387 kts 97°
2026-04-15 14:43 20.83242 81.07690 7020 ft 382 kts 97°
2026-04-15 14:44 20.82879 81.10488 6351 ft 378 kts 97°
2026-04-15 14:44 20.82520 81.13255 5664 ft 373 kts 98°
2026-04-15 14:44 20.82165 81.15990 4976 ft 369 kts 98°
2026-04-15 14:44 20.81814 81.18695 4295 ft 366 kts 98°
2026-04-15 14:45 20.81464 81.21377 3612 ft 362 kts 98°
2026-04-15 14:45 20.81118 81.24025 3102 ft 354 kts 98°
2026-04-15 14:45 20.80792 81.26543 3073 ft 332 kts 98°
2026-04-15 14:45 20.80476 81.28955 3076 ft 329 kts 99°
2026-04-15 14:46 20.80139 81.31488 3075 ft 357 kts 98°
2026-04-15 14:46 20.79839 81.34133 3079 ft 361 kts 92°
2026-04-15 14:46 20.80273 81.36776 3080 ft 364 kts 69°
2026-04-15 14:46 20.81577 81.39070 3099 ft 363 kts 46°
2026-04-15 14:47 20.83399 81.40919 3099 ft 361 kts 40°
2026-04-15 14:47 20.85278 81.42703 3082 ft 362 kts 39°
2026-04-15 14:47 20.87164 81.44487 3088 ft 362 kts 40°
2026-04-15 14:47 20.89031 81.46299 3085 ft 362 kts 40°
2026-04-15 14:48 20.90890 81.48116 3081 ft 364 kts 40°
2026-04-15 14:48 20.92830 81.49985 3107 ft 380 kts 40°
2026-04-15 14:48 20.94791 81.51875 3088 ft 379 kts 40°
2026-04-15 14:48 20.96746 81.53772 3088 ft 381 kts 40°
2026-04-15 14:49 20.98717 81.55680 3088 ft 382 kts 40°
2026-04-15 14:49 21.00687 81.57590 3089 ft 382 kts 40°
2026-04-15 14:49 21.02650 81.59493 3086 ft 372 kts 40°
2026-04-15 14:49 21.04494 81.61290 3071 ft 345 kts 39°
2026-04-15 14:50 21.06190 81.62936 3051 ft 307 kts 39°
2026-04-15 14:50 21.07662 81.64363 3068 ft 264 kts 39°
2026-04-15 14:50 21.08965 81.65624 3069 ft 241 kts 38°
2026-04-15 14:50 21.10138 81.66759 3065 ft 211 kts 39°
2026-04-15 14:51 21.11154 81.67750 3056 ft 188 kts 38°
2026-04-15 14:51 21.12105 81.68666 3069 ft 181 kts 37°
2026-04-15 14:51 21.13026 81.69556 3078 ft 179 kts 37°
2026-04-15 14:51 21.13942 81.70446 3077 ft 171 kts 38°
2026-04-15 14:52 21.14808 81.71288 3075 ft 170 kts 37°
2026-04-15 14:52 21.15690 81.72144 3078 ft 168 kts 37°
2026-04-15 14:52 21.16560 81.72988 3077 ft 168 kts 37°
2026-04-15 14:52 21.17405 81.73810 3079 ft 165 kts 37°
2026-04-15 14:53 21.18238 81.74646 3074 ft 165 kts 41°
2026-04-15 14:53 21.18886 81.75670 3078 ft 166 kts 55°
2026-04-15 14:53 21.19491 81.76720 3079 ft 165 kts 53°
2026-04-15 14:53 21.20159 81.77812 3119 ft 188 kts 53°
2026-04-15 14:54 21.20888 81.79005 3095 ft 191 kts 54°
2026-04-15 14:54 21.21624 81.80219 3117 ft 198 kts 54°
2026-04-15 14:54 21.22267 81.81470 3090 ft 179 kts 58°
2026-04-15 14:54 21.22904 81.82554 3077 ft 168 kts 53°
2026-04-15 14:55 21.23535 81.83612 3071 ft 168 kts 55°
2026-04-15 14:55 21.24134 81.84678 3080 ft 167 kts 56°
2026-04-15 14:55 21.24486 81.85856 2941 ft 172 kts 91°
2026-04-15 14:55 21.24118 81.87045 2927 ft 165 kts 114°
2026-04-15 14:56 21.23821 81.88296 3057 ft 179 kts 102°
2026-04-15 14:56 21.23566 81.89603 3098 ft 180 kts 104°
2026-04-15 14:56 21.23267 81.90901 3100 ft 181 kts 105°
2026-04-15 14:56 21.22956 81.92216 3091 ft 181 kts 105°
2026-04-15 14:57 21.22656 81.93529 3086 ft 181 kts 103°
2026-04-15 14:57 21.22832 81.94819 2968 ft 175 kts 54°
2026-04-15 14:57 21.23816 81.95438 2920 ft 164 kts 359°
2026-04-15 14:57 21.24777 81.94981 2918 ft 151 kts 311°
2026-04-15 14:58 21.25449 81.94125 3063 ft 150 kts 308°
2026-04-15 14:58 21.26234 81.93405 3062 ft 147 kts 322°
2026-04-15 14:58 21.27031 81.92747 3055 ft 148 kts 307°
2026-04-15 14:58 21.27521 81.91793 3062 ft 148 kts 287°
2026-04-15 14:59 21.27359 81.90727 3051 ft 148 kts 246°
2026-04-15 14:59 21.26899 81.89766 3078 ft 144 kts 246°
2026-04-15 14:59 21.26418 81.88840 3077 ft 142 kts 243°
2026-04-15 14:59 21.25927 81.87929 3076 ft 140 kts 243°
2026-04-15 15:00 21.25426 81.87032 3083 ft 140 kts 242°
2026-04-15 15:00 21.24921 81.86136 3084 ft 141 kts 242°
2026-04-15 15:00 21.24404 81.85216 2942 ft 145 kts 242°
2026-04-15 15:00 21.23897 81.84304 2766 ft 141 kts 243°
2026-04-15 15:01 21.23396 81.83407 2596 ft 140 kts 242°
2026-04-15 15:01 21.22897 81.82523 2424 ft 138 kts 242°
2026-04-15 15:01 21.22402 81.81642 2258 ft 138 kts 242°
2026-04-15 15:01 21.21905 81.80751 2083 ft 140 kts 243°
2026-04-15 15:02 21.21407 81.79852 1917 ft 140 kts 242°
2026-04-15 15:02 21.20905 81.78957 1749 ft 141 kts 241°
2026-04-15 15:02 21.20377 81.78024 1573 ft 149 kts 239°
2026-04-15 15:02 21.19841 81.77070 1370 ft 150 kts 239°
2026-04-15 15:03 21.19279 81.76129 1226 ft 147 kts 236°
2026-04-15 15:03 21.18755 81.75179 1154 ft 145 kts 239°
2026-04-15 15:03 21.18306 81.74361 1045 ft 99 kts 241°
2026-04-15 15:03 21.18061 81.73908 1041 ft 56 kts 239°
2026-04-15 15:04 21.17882 81.73593 1040 ft 47 kts 238°
2026-04-15 15:04 21.17745 81.73356 1037 ft 29 kts 238°
2026-04-15 15:04 21.17654 81.73191 1032 ft 25 kts 246°
2026-04-15 15:04 21.17644 81.73069 1031 ft 12 kts 245°
2026-04-15 15:05 21.17622 81.73055 1030 ft 2 kts 182°
2026-04-15 15:05 21.17603 81.73074 1030 ft 5 kts 109°
2026-04-15 15:05 21.17620 81.73127 1031 ft 12 kts 61°
2026-04-15 15:05 21.17683 81.73241 1030 ft 23 kts 59°
2026-04-15 15:06 21.17999 81.73800 1042 ft 38 kts 58°
2026-04-15 15:06 21.18135 81.74039 1042 ft 36 kts 58°
2026-04-15 15:06 21.18212 81.74174 1042 ft 13 kts 58°
2026-04-15 15:07 21.18244 81.74210 1042 ft 3 kts 14°
2026-04-15 15:07 21.18259 81.74206 1042 ft 2 kts 333°
2026-04-15 15:07 21.18301 81.74178 1043 ft 13 kts 328°
2026-04-15 15:07 21.18397 81.74115 1044 ft 17 kts 328°
2026-04-15 15:08 21.18430 81.74097 1044 ft 4 kts 351°
2026-04-15 15:08 21.18454 81.74114 1044 ft 7 kts 47°
2026-04-15 15:08 21.18487 81.74147 1045 ft 6 kts 14°
2026-04-15 15:08 21.18532 81.74128 1045 ft 8 kts 331°
2026-04-15 15:09 21.18536 81.74126 1045 ft 0 kts 332°